STARLINK-5749, 55569

Orbit data source: Space-Track

STARLINK-5749, 55569 is a payload satellite owned by SpaceX/Seattle (US) in LEO that was launched on Sun, 12 Feb 2023 UTC via an FALCON 9 launch vehicle from the Air Force Eastern Test Range (AFETR). Payload-class satellites include a variety of spacecraft equipped with specific instruments for various scientific and technological missions. These include communications satellites like Starlink; space stations such as the ISS; scientific satellites like the Hubble; Earth observation satellites from companies like Planet Labs, Umbra, and HawkEye 360; GPS; miniature CubeSats for education and research; and military/defense satellites.

Loading next visibility...
Identifier
55569, 2023-020A
Orbit
LEO
Country
Flag of USUS
Related business
Manufacturer
SpaceX/Seattle
Mission
Operational Commercial Communications
Bus & Motor
STARLINK, Unknown motor
Mass
305 kg wet, ~290 kg dry
Launch date (UTC)
2023-02-12 (3 years ago)
Launch vehicle
FALCON 9
Launch site
Air Force Eastern Test Range (AFETR)
Object type
Payload
Rocket body
Debris
Shape & HBR
Box + 1 Pan, 4.4 m
Radar Cross Section
13.562 m², Large (>1 m²)

Expand to show TLE details & history
Last TLE update: 1 day ago

TLE from 1 day ago
0 STARLINK-5749
1 55569U 23020A   25259.64120875  .00000422  00000-0  46327-4 0  9997
2 55569  43.0023 230.7362 0001034 272.8870  87.1854 15.02534312143804
Epoch: 2025-09-16T15:23Z
TLE epoch observation values (Epoch: 2025-09-16T15:23:20.436Z)
Latitude
Longitude
4.07246°
Altitude
558.828 km
Speed
7.584 km/s
True Right ascension
15h 22m 56s
True Declination
0° 00' 00"
Sunlit
Object was in daylight at epoch
Visualization orbit readout
Latitude
Unknown
Longitude
Unknown
Altitude
Unknown
Speed
Unknown
Apparent Right ascension
Unknown
Apparent Declination
Unknown
Sunlit
N/A
Visualization observer readout
Local Sidereal Time
14:13:09
Azimuth
Unknown
Elevation
Unknown
Doppler factor
Unknown
Orbital elements
Apogee altitude
561.726 km
Perigee altitude
560.291 km
Semi-major axis
6,939.145 km
Eccentricity
0.0001
Inclination
43.0023°
RAAN
230.7362°
Arg. of periapsis
272.887°
True anomaly
87.19723°
Mean anomaly
87.1854°
Eccentric anomaly
87.19132°
Mean motion
3.75478 °/min
Orbital period
95.88 mins
BSTAR
0.000046327
Loading maneuver chart data...
Computing Atmospheric mass density...
Loading historical data...
Loading historical data...
Loading historical data...
Loading historical data...
Loading historical data...
Loading historical data...
Loading historical data...

Documentation

Showing up to 5 results
|